Home   Weather   Strausberg   Past weeks

Flag for Germany Past Weather in Strausberg, Brandenburg, Germany — Yesterday and Last 2 Weeks

Now
45 °F

Broken clouds.


Feels Like: 36 °F
Forecast: 31 / 45 °F
Wind: 23 mph from Northwest

Location: Berlin-Schoenefeld

Current Time: Dec 11, 2016 at 1:06:31 pm

Latest Report: Dec 11, 2016 at 12:20 pm


Visibility: N/A

Pressure: 29.83 "Hg

Humidity: 87%

Dew Point: 41 °F

Location of StrausbergLocation

Past Weather in Strausberg — Graph

°F

Strausberg Temperature Yesterday

Maximum temperature yesterday: 52 °F (at 12:20 pm)
Minimum temperature yesterday: 46 °F (at 12:20 am)
Average temperature yesterday: 48 °F

High & Low Weather Summary for the Past Weeks

 TemperatureHumidityPressure
High52 °F (Dec 10, 12:20 pm)100% (Nov 26, 11:20 am)30.57 "Hg (Nov 26, 11:20 am)
Low19 °F (Nov 29, 2:20 am)56% (Nov 28, 1:50 pm)29.68 "Hg (Dec 11, 8:50 am)
Average36 °F87%30.22 "Hg
* Reported Nov 26 11:20 am — Dec 11 11:50 am, Strausberg, Weather by CustomWeather, © 2016

Note: Actual official high and low records may vary slightly from our data, if they occured in-between our weather recording intervals... More about our weather records

Advertising

Strausberg Weather History for the Previous 24 Hours

Scroll right to see more
 ConditionsComfort  
Time TempWeatherWind HumidityBarometerVisibility
11:50 am
Sun, Dec 11
45 °FPartly sunny.28 mph87%29.80 "HgN/A
11:20 am46 °FLight rain. Partly sunny.30 mph87%29.74 "HgN/A
10:50 am46 °FDrizzle. Partly sunny.21 mph93%29.71 "Hg4 mi
10:20 am46 °FDrizzle. Partly sunny.17 mph93%29.68 "Hg4 mi
9:50 am46 °FDrizzle. Partly sunny.18 mph93%29.68 "Hg4 mi
9:20 am46 °FLight rain. Partly sunny.20 mph93%29.68 "Hg4 mi
8:50 am46 °FLight rain. Fog.16 mph93%29.68 "Hg3 mi
8:20 am45 °FRain. Fog.15 mph100%29.71 "Hg2 mi
7:50 am45 °FRain. Fog.16 mph93%29.71 "Hg2 mi
7:20 am45 °FRain. Fog.15 mph93%29.74 "Hg2 mi
6:50 am45 °FLight rain. Fog.14 mph93%29.74 "Hg2 mi
6:20 am45 °FLight rain. Fog.13 mph93%29.77 "Hg2 mi
5:50 am45 °FLight rain. Fog.10 mph93%29.80 "Hg2 mi
5:20 am45 °FLight rain. Fog.10 mph93%29.83 "Hg1 mi
4:50 am45 °FLight rain. Fog.9 mph93%29.86 "Hg1 mi
4:20 am45 °FLight rain. Fog.9 mph93%29.89 "Hg1 mi
3:50 am45 °FLight rain. Fog.7 mph93%29.92 "Hg2 mi
3:20 am45 °FLight rain. Fog.6 mph93%29.92 "Hg1 mi
2:50 am45 °FLight rain. Fog.9 mph100%29.95 "Hg1 mi
2:20 am46 °FLight rain. Fog.8 mph93%29.95 "Hg2 mi
1:50 am46 °FLight rain. Fog.7 mph93%29.98 "Hg2 mi
1:20 am46 °FLight rain. Fog.7 mph93%29.98 "Hg2 mi
12:50 am46 °FLight rain. Fog.8 mph93%30.01 "Hg2 mi
12:20 am46 °FLight rain. Fog.9 mph93%30.04 "Hg2 mi
11:50 pm
Sat, Dec 10
46 °FLight rain. Passing clouds.9 mph93%30.04 "Hg4 mi
11:20 pm46 °FPassing clouds.8 mph93%30.04 "Hg4 mi
10:50 pm46 °FPassing clouds.7 mph93%30.04 "Hg4 mi
10:20 pm46 °FPassing clouds.7 mph93%30.04 "Hg4 mi
9:50 pm46 °FPassing clouds.7 mph93%30.07 "Hg6 mi
9:20 pm46 °FPassing clouds.7 mph93%30.07 "Hg6 mi
8:50 pm46 °FPassing clouds.8 mph93%30.07 "HgN/A
8:20 pm46 °FPassing clouds.8 mph93%30.09 "HgN/A
7:50 pm46 °FPassing clouds.9 mph93%30.09 "HgN/A
7:20 pm46 °FPassing clouds.10 mph93%30.09 "HgN/A
6:50 pm46 °FPassing clouds.12 mph93%30.09 "HgN/A
6:20 pm46 °FPassing clouds.9 mph93%30.09 "HgN/A
5:50 pm46 °FLight rain. Passing clouds.13 mph93%30.09 "HgN/A
5:20 pm46 °FLight rain. Passing clouds.12 mph93%30.09 "HgN/A
4:50 pm48 °FPassing clouds.14 mph87%30.09 "HgN/A
4:20 pm48 °FLight rain. Passing clouds.14 mph82%30.09 "HgN/A
3:50 pm48 °FPartly sunny.15 mph82%30.09 "HgN/A
3:20 pm48 °FPartly sunny.16 mph82%30.09 "HgN/A
2:50 pm50 °FLight rain. Partly sunny.18 mph76%30.09 "HgN/A
2:20 pm50 °FPartly sunny.16 mph71%30.07 "HgN/A
1:50 pm50 °FPartly sunny.17 mph76%30.07 "HgN/A
1:20 pm52 °FBroken clouds.20 mph72%30.07 "HgN/A
Weather by CustomWeather, © 2016

See weather overviewHow to use our weather pages